| time (UTC) | temp C | wind direction | speed KPH | gust KPH | rain 1hr cm | rain 24hr cm | rain mn cm | humidity % | barometer mb |
| 20260906173002 | 23 | 360 | 3.2 | 6.4 | 0.00 | 0.00 | 0.00 | 78 | 1020.9 |
| 20260906171605 | 23 | 15 | 0.0 | 6.4 | 0.00 | 0.00 | 0.00 | 80 | 1020.9 |
| 20260906170120 | 23 | 335 | 0.0 | 6.4 | 0.00 | 0.00 | 0.00 | 78 | 1021.0 |
| 20260906164600 | 23 | 28 | 0.0 | 0.0 | 0.00 | 0.00 | 0.00 | 80 | 1020.9 |
| 20260906163109 | 22 | 26 | 0.0 | 0.0 | 0.00 | 0.00 | 0.00 | 78 | 1021.0 |
| 20260906161554 | 22 | 355 | 0.0 | 4.8 | 0.00 | 0.00 | 0.00 | 79 | 1021.0 |
| 20260906160055 | 22 | 119 | 0.0 | 3.2 | 0.00 | 0.00 | 0.00 | 82 | 1021.1 |
| 20260906154549 | 22 | 137 | 3.2 | 8.0 | 0.00 | 0.00 | 0.00 | 83 | 1021.2 |
| 20260906153047 | 21 | 145 | 1.6 | 6.4 | 0.00 | 0.00 | 0.00 | 80 | 1021.1 |
| 20260906151546 | 21 | 141 | 0.0 | 6.4 | 0.00 | 0.00 | 0.00 | 82 | 1021.3 |
| 20260906150040 | 20 | 164 | 0.0 | 1.6 | 0.00 | 0.00 | 0.00 | 88 | 1021.4 |
| 20260906144543 | 19 | 277 | 0.0 | 0.0 | 0.00 | 0.00 | 0.00 | 93 | 1021.5 |
| 20260906143038 | 17 | 178 | 0.0 | 4.8 | 0.00 | 0.00 | 0.00 | 96 | 1021.5 |
| 20260906141529 | 16 | 134 | 0.0 | 6.4 | 0.00 | 0.00 | 0.00 | 98 | 1021.7 |
| 20260906140028 | 16 | 145 | 0.0 | 4.8 | 0.00 | 0.00 | 0.00 | 100 | 1021.7 |
| 20260906134523 | 15 | 145 | 1.6 | 4.8 | 0.00 | 0.00 | 0.00 | 100 | 1021.7 |
| 20260906133019 | 15 | 140 | 0.0 | 4.8 | 0.00 | 0.00 | 0.00 | 100 | 1021.8 |
| 20260906131519 | 14 | 5 | 0.0 | 0.0 | 0.00 | 0.00 | 0.00 | 100 | 1021.8 |
| 20260906130017 | 13 | 5 | 0.0 | 0.0 | 0.00 | 0.00 | 0.00 | 100 | 1021.6 |
| 20260906124514 | 13 | 5 | 0.0 | 0.0 | 0.00 | 0.00 | 0.00 | 100 | 1021.5 |
| 20260906123017 | 12 | 5 | 0.0 | 0.0 | 0.00 | 0.00 | 0.00 | 100 | 1021.4 |
| 20260906121516 | 12 | 5 | 0.0 | 0.0 | 0.00 | 0.00 | 0.00 | 100 | 1021.5 |
| 20260906120013 | 12 | 5 | 0.0 | 0.0 | 0.00 | 0.00 | 0.00 | 100 | 1021.5 |
| 20260906114523 | 12 | 5 | 0.0 | 0.0 | 0.00 | 0.00 | 0.00 | 100 | 1021.3 |
| 20260906113013 | 11 | 5 | 0.0 | 0.0 | 0.00 | 0.00 | 0.00 | 99 | 1021.1 |
| 20260906111509 | 12 | 5 | 0.0 | 0.0 | 0.00 | 0.00 | 0.00 | 100 | 1021.0 |
| 20260906110007 | 11 | 5 | 0.0 | 0.0 | 0.00 | 0.00 | 0.00 | 99 | 1021.0 |
| 20260906104511 | 12 | 5 | 0.0 | 0.0 | 0.00 | 0.00 | 0.00 | 99 | 1020.9 |
| 20260906103004 | 12 | 5 | 0.0 | 0.0 | 0.00 | 0.00 | 0.00 | 99 | 1020.9 |
| 20260906101511 | 12 | 5 | 0.0 | 0.0 | 0.00 | 0.00 | 0.00 | 99 | 1020.8 |
| 20260906100002 | 12 | 5 | 0.0 | 0.0 | 0.00 | 0.00 | 0.00 | 99 | 1020.7 |
| 20260906094501 | 12 | 5 | 0.0 | 0.0 | 0.00 | 0.00 | 0.00 | 99 | 1020.8 |
| 20260906093000 | 12 | 5 | 0.0 | 0.0 | 0.00 | 0.00 | 0.00 | 99 | 1020.8 |
| 20260906091600 | 12 | 5 | 0.0 | 0.0 | 0.00 | 0.00 | 0.00 | 99 | 1020.7 |
| 20260906090100 | 12 | 5 | 0.0 | 0.0 | 0.00 | 0.00 | 0.00 | 99 | 1020.7 |
| 20260906084558 | 12 | 5 | 0.0 | 0.0 | 0.00 | 0.00 | 0.00 | 99 | 1020.7 |
| 20260906083057 | 12 | 5 | 0.0 | 0.0 | 0.00 | 0.00 | 0.00 | 99 | 1020.7 |
| 20260906081557 | 12 | 5 | 0.0 | 0.0 | 0.00 | 0.00 | 0.00 | 99 | 1020.7 |
| 20260906074555 | 12 | 5 | 0.0 | 0.0 | 0.00 | 0.00 | 0.00 | 99 | 1020.8 |
| 20260906073054 | 12 | 5 | 0.0 | 0.0 | 0.00 | 0.00 | 0.00 | 99 | 1020.6 |
| 20260906071554 | 13 | 5 | 0.0 | 0.0 | 0.00 | 0.00 | 0.00 | 99 | 1020.8 |
| 20260906070056 | 13 | 5 | 0.0 | 0.0 | 0.00 | 0.00 | 0.00 | 99 | 1020.7 |
| 20260906064552 | 13 | 5 | 0.0 | 0.0 | 0.00 | 0.00 | 0.00 | 99 | 1020.7 |
| 20260906063048 | 13 | 5 | 0.0 | 0.0 | 0.00 | 0.00 | 0.00 | 99 | 1020.6 |
| 20260906061546 | 13 | 5 | 0.0 | 0.0 | 0.00 | 0.00 | 0.00 | 99 | 1020.5 |
| 20260906060043 | 13 | 5 | 0.0 | 0.0 | 0.00 | 0.00 | 0.00 | 99 | 1020.1 |
| 20260906054557 | 13 | 5 | 0.0 | 0.0 | 0.00 | 0.00 | 0.00 | 99 | 1019.9 |
| 20260906053041 | 13 | 5 | 0.0 | 0.0 | 0.00 | 0.00 | 0.00 | 99 | 1019.9 |
| 20260906051601 | 13 | 5 | 0.0 | 0.0 | 0.00 | 0.00 | 0.00 | 98 | 1019.9 |
| 20260906050044 | 14 | 5 | 0.0 | 0.0 | 0.00 | 0.00 | 0.00 | 98 | 1019.9 |
| 20260906044545 | 14 | 5 | 0.0 | 0.0 | 0.00 | 0.00 | 0.00 | 98 | 1019.9 |
| 20260906043035 | 14 | 5 | 0.0 | 0.0 | 0.00 | 0.00 | 0.00 | 98 | 1019.7 |
| 20260906041534 | 14 | 5 | 0.0 | 0.0 | 0.00 | 0.00 | 0.00 | 98 | 1019.7 |
| 20260906040057 | 15 | 5 | 0.0 | 0.0 | 0.00 | 0.00 | 0.00 | 98 | 1019.6 |
| 20260906034531 | 15 | 5 | 0.0 | 0.0 | 0.00 | 0.00 | 0.00 | 98 | 1019.6 |
| 20260906033044 | 15 | 5 | 0.0 | 0.0 | 0.00 | 0.00 | 0.00 | 98 | 1019.4 |
| 20260906031530 | 15 | 5 | 0.0 | 0.0 | 0.00 | 0.00 | 0.00 | 97 | 1019.3 |
| 20260906030030 | 15 | 5 | 0.0 | 0.0 | 0.00 | 0.00 | 0.00 | 97 | 1019.3 |
| 20260906024529 | 15 | 5 | 0.0 | 0.0 | 0.00 | 0.00 | 0.00 | 97 | 1019.1 |
| 20260906023028 | 16 | 5 | 0.0 | 0.0 | 0.00 | 0.00 | 0.00 | 96 | 1019.2 |
| 20260906021528 | 16 | 5 | 0.0 | 0.0 | 0.00 | 0.00 | 0.00 | 96 | 1019.2 |
| 20260906020028 | 16 | 5 | 0.0 | 0.0 | 0.00 | 0.00 | 0.00 | 96 | 1019.1 |
| 20260906014529 | 16 | 5 | 0.0 | 0.0 | 0.00 | 0.00 | 0.00 | 95 | 1018.9 |
| 20260906013030 | 17 | 5 | 0.0 | 0.0 | 0.00 | 0.00 | 0.00 | 95 | 1018.7 |
| 20260906011527 | 17 | 5 | 0.0 | 0.0 | 0.00 | 0.00 | 0.00 | 94 | 1018.6 |
| 20260906010026 | 17 | 5 | 0.0 | 0.0 | 0.00 | 0.00 | 0.00 | 94 | 1018.6 |
| 20260906004526 | 17 | 333 | 0.0 | 3.2 | 0.00 | 0.00 | 0.00 | 93 | 1018.6 |
| 20260906003025 | 18 | 343 | 0.0 | 0.0 | 0.00 | 0.00 | 0.00 | 93 | 1018.5 |
| 20260906001525 | 18 | 355 | 1.6 | 6.4 | 0.00 | 0.00 | 0.00 | 92 | 1018.5 |
| 20260906000024 | 18 | 355 | 3.2 | 8.0 | 0.00 | 0.00 | 0.00 | 91 | 1018.6 |
| 20260905234524 | 18 | 355 | 3.2 | 6.4 | 0.00 | 0.00 | 0.00 | 90 | 1018.6 |
| 20260905233023 | 19 | 360 | 3.2 | 8.0 | 0.00 | 0.00 | 0.00 | 89 | 1018.5 |
| 20260905231523 | 20 | 5 | 3.2 | 9.7 | 0.00 | 0.00 | 0.00 | 88 | 1018.6 |
| 20260905230021 | 20 | 360 | 6.4 | 9.7 | 0.00 | 0.00 | 0.00 | 87 | 1018.5 |
| 20260905224549 | 20 | 355 | 4.8 | 12.9 | 0.00 | 0.00 | 0.00 | 86 | 1018.8 |
| 20260905223022 | 20 | 5 | 3.2 | 9.7 | 0.00 | 0.00 | 0.00 | 86 | 1018.6 |
| 20260905221520 | 21 | 346 | 3.2 | 12.9 | 0.00 | 0.00 | 0.00 | 84 | 1018.6 |
| 20260905220019 | 21 | 340 | 4.8 | 9.7 | 0.00 | 0.00 | 0.00 | 83 | 1018.6 |
| 20260905214518 | 21 | 9 | 1.6 | 9.7 | 0.00 | 0.00 | 0.00 | 83 | 1018.5 |
| 20260905213018 | 21 | 333 | 3.2 | 9.7 | 0.00 | 0.00 | 0.00 | 82 | 1018.8 |
| 20260905211536 | 22 | 22 | 4.8 | 12.9 | 0.00 | 0.00 | 0.00 | 81 | 1018.6 |
| 20260905210023 | 22 | 355 | 3.2 | 12.9 | 0.00 | 0.00 | 0.00 | 83 | 1018.8 |
| 20260905204516 | 22 | 351 | 3.2 | 14.5 | 0.00 | 0.00 | 0.00 | 83 | 1018.8 |
| 20260905203017 | 22 | 355 | 4.8 | 9.7 | 0.00 | 0.00 | 0.00 | 80 | 1018.7 |
| 20260905201520 | 22 | 351 | 4.8 | 9.7 | 0.00 | 0.00 | 0.00 | 82 | 1018.7 |
| 20260905200022 | 22 | 24 | 4.8 | 12.9 | 0.00 | 0.00 | 0.00 | 82 | 1018.7 |
| 20260905194517 | 22 | 349 | 3.2 | 8.0 | 0.00 | 0.00 | 0.00 | 80 | 1018.7 |
| 20260905193013 | 22 | 10 | 4.8 | 8.0 | 0.00 | 0.00 | 0.00 | 81 | 1018.9 |
| 20260905191516 | 22 | 355 | 3.2 | 9.7 | 0.00 | 0.00 | 0.00 | 82 | 1019.1 |
| 20260905190012 | 22 | 22 | 0.0 | 8.0 | 0.00 | 0.00 | 0.00 | 84 | 1019.1 |
| 20260905184524 | 22 | 16 | 6.4 | 14.5 | 0.00 | 0.00 | 0.00 | 82 | 1019.1 |
| 20260905183011 | 22 | 40 | 1.6 | 9.7 | 0.00 | 0.00 | 0.00 | 84 | 1019.3 |
| 20260905181511 | 22 | 5 | 3.2 | 8.0 | 0.00 | 0.00 | 0.00 | 84 | 1019.4 |
| 20260905180009 | 21 | 14 | 3.2 | 9.7 | 0.00 | 0.00 | 0.00 | 84 | 1019.2 |
| 20260905174508 | 22 | 339 | 4.8 | 9.7 | 0.00 | 0.00 | 0.00 | 84 | 1019.4 |